{"data":{"norad_id":60491,"intl_designator":"2024-149Z","name":"FLOCK 4BE-15","alt_names":[],"object_type":"PAYLOAD","status":"ACTIVE","operator":null,"country":"US","launch_date":"2024-08-16","launch_site_code":"AFWTR","launch_vehicle":null,"mission":null,"orbit_class":"UNKNOWN","rcs_meters":null,"size_class":null,"mass_kg":null,"dimensions":null,"purposes":["earth_obs"],"wikipedia_slug":null,"has_3d_model":false,"image_url":null,"decayed_at":null,"tle_current":{"epoch":"2026-06-17T19:01:24.148704Z","epoch_age_seconds":8201055,"freshness":"OLD","line1":"1 60491U 24149Z   26168.79264061  .00075620  00000+0  93730-3 0  9992","line2":"2 60491  97.3684 254.1953 0003174 238.0728 122.0220 15.59802576102520","mean_motion":15.59802576,"eccentricity":0.0003174,"inclination_deg":97.3684,"raan_deg":254.1953,"arg_perigee_deg":238.0728,"mean_anomaly_deg":122.022,"bstar":0.0009373,"rev_number":10252,"period_min":92.319375679759,"perigee_km":386.08032157185,"apogee_km":390.37561005214,"semimajor_km":6766.364965812,"source":"CELESTRAK","updated_at":"2026-06-18T09:00:49.568060Z"}}}